Dewpoint
8 8 7 7 5 5 6 4 4 4 4 4 4 3 1 0 -0 -4 -7 -8 -10 -11 -12 -12 -10 -8 -3 -1 -1 -1 -5 -9 -10 -11 -13 -12 -14 -16 -18 -18 -8 -1
9 7 7 7 6 6 4 2 3 4 4 4 3 -0 -6 -9 -7 -9 -11 -9 -10 -12 -12 -11 -9 -8 -8 -7 -6 -5 -8 -8 -6 -6 -7 -5 -7 -10 -13 -15 -8 -2
9 8 7 7 6 6 3 1 3 3 3 4 -0 -8 -13 -13 -11 -10 -8 -6 -9 -10 -8 -9 -7 -6 -6 -7 -7 -6 -7 -8 -6 -6 -8 -6 -5 -7 -8 -6 -3 -0
8 8 7 7 6 5 3 -0 1 2 0 -2 -6 -13 -12 -11 -11 -9 -7 -6 -7 -9 -8 -7 -5 -3 -4 -4 -4 -6 -7 -7 -7 -6 -6 -7 -7 -7 -7 -5 -3 -1
8 8 8 8 5 3 3 -0 -1 0 -5 -9 -10 -12 -11 -10 -9 -8 -7 -5 -5 -7 -7 -7 -6 -5 -4 -3 -2 -5 -4 -4 -6 -5 -5 -6 -6 -5 -6 -6 -6 -3
9 8 6 6 3 2 4 2 -1 -2 -7 -11 -10 -10 -10 -8 -7 -6 -6 -4 -4 -6 -6 -7 -7 -4 -2 -0 1 2 3 2 -1 0 1 -0 -2 -2 -1 -1 -2 -2
7 7 6 6 5 4 4 3 -0 -3 -8 -12 -8 -9 -9 -6 -3 -2 -3 -3 -1 -0 -0 -2 -2 -0 1 3 5 5 6 4 4 5 5 4 2 1 2 2 2 2
6 7 7 6 7 7 5 3 -0 -3 -8 -11 -8 -7 -7 -1 2 1 0 1 3 4 5 4 3 3 3 6 7 6 5 5 6 7 6 5 5 4 4 3 3 4
5 8 8 7 8 8 7 3 -2 -2 -4 -8 -7 -6 -4 2 4 3 3 4 5 5 6 6 6 6 6 7 7 7 6 6 6 7 7 6 6 6 5 5 4 5
3 7 8 8 8 9 8 4 -2 -1 1 -2 -2 -2 -1 3 4 4 5 5 5 6 6 6 7 7 7 7 8 8 8 7 7 8 7 7 7 7 6 6 6 6
1 5 8 8 8 9 9 6 -1 -3 1 2 2 1 2 3 4 5 6 6 6 6 6 6 7 7 7 7 8 8 8 8 8 8 8 8 8 7 7 7 6 6
2 5 8 8 7 8 8 6 1 -5 -3 2 2 1 2 4 5 5 6 6 6 6 6 6 6 6 7 7 7 8 8 8 8 7 8 8 8 8 8 7 7 7
7 8 8 8 7 8 7 7 6 2 -2 1 2 1 4 5 5 6 7 6 6 6 6 6 6 6 7 7 7 7 7 8 8 8 8 8 8 8 8 8 8 8
9 9 9 8 8 8 8 7 8 6 3 3 3 3 5 6 6 6 7 6 6 6 6 6 7 7 7 7 7 7 8 8 8 8 8 8 7 7 8 8 8 8
8 8 10 9 8 8 8 8 9 8 7 6 5 5 6 7 6 7 7 6 6 7 7 7 7 7 6 6 6 7 7 8 8 7 7 7 7 7 7 8 8 9
9 9 10 10 9 8 8 9 9 9 8 8 6 6 6 6 6 7 7 7 7 7 7 8 7 6 5 5 5 5 6 6 6 7 7 7 7 7 7 8 8 9
9 9 9 9 9 8 8 8 8 8 8 8 6 5 6 6 6 6 5 6 7 8 7 7 6 5 5 5 3 3 4 5 6 7 6 7 7 7 7 6 7 8
9 9 9 9 8 8 8 8 7 7 8 8 7 6 6 6 5 4 4 5 6 7 7 6 5 5 4 4 3 3 4 3 5 7 6 6 7 6 6 6 6 7
9 9 9 8 7 7 7 7 8 7 7 7 7 6 6 6 5 5 6 6 6 7 7 5 4 4 3 3 3 4 4 3 4 6 6 6 6 5 5 5 5 5
9 9 8 8 8 8 7 8 8 7 7 6 6 6 6 6 6 5 6 6 5 6 5 3 2 2 1 1 2 2 2 1 2 5 5 3 2 -0 -0 1 1 2
8 8 7 7 8 7 7 7 6 5 5 5 5 6 5 6 6 6 5 5 5 5 4 1 -2 -3 -4 -3 -3 -3 -4 -5 -0 4 5 2 -4 -11 -9 -7 -7 -4
5 5 5 6 6 6 6 6 5 5 4 4 5 5 6 6 5 4 3 3 4 4 1 -5 -9 -10 -12 -10 -9 -11 -11 -4 2 4 4 4 1 -4 -5 -7 -8 -1
2 3 3 3 4 5 5 5 5 5 5 4 4 5 5 5 4 3 2 2 3 3 -1 -9 -11 -9 -11 -12 -10 -13 -12 -1 4 4 4 5 4 2 0 -6 -8 -1
0 1 2 2 2 3 4 4 4 4 3 3 3 3 3 3 3 3 2 2 3 3 -0 -6 -8 -7 -8 -10 -8 -10 -11 -4 3 4 4 4 4 3 2 -1 -4 -2
-0 -0 0 1 1 2 2 2 2 2 2 2 2 2 2 2 1 2 2 2 2 -1 -4 -5 -7 -8 -8 -9 -9 -9 -10 -7 0 4 4 3 2 3 2 1 -1 -1
0 0 1 0 0 1 2 1 1 1 1 1 1 1 1 0 -0 0 1 2 1 -3 -6 -4 -6 -9 -9 -9 -10 -9 -10 -9 -3 2 3 2 1 1 2 1 0 -1
Wind_Speed
17 16 14 12 12 13 13 14 15 15 15 15 14 14 14 13 13 12 13 12 12 13 13 13 14 13 13 13 12 11 11 12 11 11 12 11 11 11 10 10 11 11
17 16 15 12 11 13 14 15 16 16 16 15 15 16 16 16 16 15 14 14 13 14 14 14 15 15 14 14 14 13 13 13 12 11 12 12 12 12 13 13 13 13
18 17 16 13 12 13 15 17 17 17 17 17 18 19 19 19 18 17 16 14 14 14 14 14 14 14 13 13 13 12 12 12 12 11 12 12 12 12 13 13 13 12
18 18 17 13 13 14 15 17 18 19 19 19 20 21 21 20 19 18 17 15 14 13 13 12 12 11 10 10 10 9 9 9 9 10 10 9 10 10 10 11 11 11
17 18 17 14 14 15 15 17 18 19 21 21 22 22 22 21 20 19 17 15 13 12 11 10 9 9 8 8 7 7 6 6 6 7 6 6 7 7 7 8 8 9
16 16 17 15 15 15 15 17 18 20 21 23 23 23 22 21 20 18 16 14 12 10 9 8 8 8 7 7 7 6 5 4 5 6 5 4 4 4 5 5 5 6
17 16 16 16 15 15 16 17 18 20 21 23 23 22 22 21 18 16 15 13 11 9 8 7 7 7 7 7 6 6 6 5 6 6 4 3 3 3 4 3 3 4
19 16 16 17 16 16 17 18 19 20 21 22 22 22 21 18 16 15 14 12 11 10 9 8 7 7 7 6 6 6 5 5 6 5 4 2 3 3 2 2 3 3
19 17 16 17 18 18 17 18 20 20 20 21 21 21 20 17 15 15 14 12 12 11 10 9 8 7 7 6 6 5 4 4 5 5 4 3 3 3 2 2 3 3
19 18 16 17 19 18 16 17 20 21 20 20 19 19 19 17 15 14 14 13 12 11 10 10 9 8 7 7 6 6 5 4 4 5 4 4 4 4 4 4 3 3
20 20 18 17 19 18 17 18 20 21 21 19 19 19 18 17 16 15 14 13 12 12 11 10 9 8 7 7 7 7 7 6 6 6 6 6 6 6 6 6 5 4
20 21 19 18 20 20 19 18 18 20 21 20 19 19 18 16 16 15 14 13 12 12 11 10 9 8 8 8 8 8 9 9 9 9 9 9 9 8 8 8 8 7
18 19 19 20 21 20 20 19 18 18 19 18 18 18 17 16 16 15 14 14 13 13 12 11 10 10 9 9 9 9 10 11 12 13 13 13 12 10 9 9 9 8
17 18 19 20 22 21 20 19 18 17 17 16 17 16 15 15 15 15 16 16 14 14 13 12 12 12 11 10 9 10 11 13 15 15 15 14 13 11 10 9 9 8
16 17 18 18 19 18 18 18 18 18 17 15 15 16 16 16 16 15 17 17 16 15 14 14 14 13 11 10 11 12 14 16 16 14 13 11 10 8 7 7 7 7
14 14 13 14 15 15 16 17 17 17 17 16 16 18 18 20 20 19 18 15 15 17 17 16 14 12 10 11 12 14 15 14 10 9 8 6 5 4 3 3 4 4
10 10 9 10 12 12 13 15 16 16 17 17 17 19 20 19 20 21 18 14 14 16 17 15 12 10 8 9 9 8 7 5 3 3 3 1 1 1 1 2 1 3
8 9 8 8 10 11 10 12 14 15 15 15 16 17 17 16 17 19 18 15 14 13 11 10 8 6 6 6 5 4 2 1 1 2 3 3 2 1 1 2 2 2
8 8 8 8 10 11 11 11 12 13 13 14 14 14 13 13 15 17 14 12 13 11 6 6 7 7 6 5 4 4 2 0 1 2 1 1 1 1 1 1 1 2
7 7 7 7 8 8 8 9 9 9 10 11 12 13 13 13 13 13 9 5 6 6 5 5 6 6 5 5 4 4 3 2 1 2 1 1 1 2 2 3 3 3
8 7 7 7 8 8 8 8 8 8 7 8 9 10 10 10 9 8 6 4 4 5 4 4 4 5 5 5 6 6 4 3 2 2 1 2 4 4 3 4 4 3
9 8 8 9 8 8 8 7 8 8 8 8 9 8 9 9 8 8 8 7 7 6 3 2 4 4 4 5 6 5 4 3 2 2 2 2 3 3 4 5 5 2
8 8 9 8 8 8 8 8 9 10 10 10 11 10 10 10 8 7 6 6 6 5 3 3 4 4 4 4 4 4 5 4 3 3 4 3 2 0 5 7 5 4
7 7 7 7 7 8 9 10 10 10 10 10 10 9 9 9 8 7 7 6 7 6 3 3 2 2 2 3 3 3 4 4 3 4 4 4 2 1 3 5 5 6
5 6 6 6 6 7 8 9 9 9 9 9 8 9 9 8 8 8 7 7 7 5 4 3 3 2 2 2 2 2 3 4 4 4 5 4 2 2 1 3 4 5
3 4 6 5 5 6 6 7 7 7 8 8 8 8 8 8 8 8 7 7 6 5 5 5 5 4 3 3 3 2 4 5 4 4 5 4 3 4 3 5 5 4
Wind_Direction
166 165 161 160 163 158 158 160 154 149 148 146 144 144 146 142 137 135 131 126 123 119 116 113 110 107 105 100 93 90 92 90 86 84 83 78 75 77 77 81 83 69
166 164 157 158 167 165 165 164 157 153 150 147 149 151 152 146 139 136 130 125 124 119 116 115 110 106 104 103 99 94 92 90 85 83 85 81 77 80 80 80 80 72
167 162 157 160 170 170 170 166 161 157 154 154 157 155 152 147 142 139 134 131 130 126 122 118 113 109 107 104 100 97 95 92 90 87 86 86 84 83 83 81 78 73
167 163 160 164 174 175 172 169 164 163 163 162 161 157 153 150 147 145 142 140 137 134 131 126 121 117 114 109 104 102 99 94 94 91 86 85 84 80 81 83 81 77
173 164 160 165 177 178 175 173 171 169 169 166 162 159 157 154 152 152 150 148 147 145 143 139 134 129 125 119 114 109 104 102 106 99 90 87 83 79 76 76 80 79
180 169 164 169 179 182 179 178 177 175 173 169 165 163 161 159 158 159 158 155 154 154 152 151 147 142 137 132 126 117 114 124 121 102 92 93 93 93 82 68 66 68
184 176 174 176 182 185 183 181 180 180 178 173 169 167 167 164 163 165 165 161 158 157 159 159 156 153 146 139 138 138 141 140 121 106 104 106 105 108 99 92 86 56
184 183 183 185 187 187 185 183 182 183 182 178 173 173 172 168 168 170 167 164 162 161 164 164 163 165 155 149 158 162 155 141 126 130 144 128 109 114 117 147 135 108
186 189 189 190 190 187 187 188 185 183 183 182 179 179 175 171 174 175 169 167 167 166 170 170 171 174 166 165 175 174 166 158 149 160 175 163 137 138 158 193 151 146
193 196 195 192 190 187 187 191 189 185 183 181 181 181 178 176 178 178 173 173 173 173 176 176 177 183 178 178 186 186 189 198 191 192 199 191 179 173 182 202 196 177
201 201 200 195 191 187 187 193 195 191 184 180 180 181 180 179 181 180 180 182 182 182 184 182 183 188 190 194 202 202 203 212 216 217 219 213 211 209 203 212 229 219
200 200 199 196 194 193 194 197 199 195 189 185 185 184 183 182 182 184 186 189 190 189 189 190 191 196 204 210 213 216 216 219 222 225 228 226 226 226 221 222 230 225
193 194 191 194 197 197 198 196 194 195 193 190 189 187 184 186 188 190 193 196 200 198 194 196 200 203 210 214 219 228 233 233 233 233 230 227 223 218 217 223 226 225
196 194 190 194 197 198 198 193 190 192 191 190 191 189 189 194 197 201 204 203 204 203 199 201 208 208 207 213 223 232 239 241 243 242 237 229 222 213 210 215 218 223
205 197 188 189 195 197 193 187 188 190 185 186 192 192 195 200 201 210 217 211 205 205 204 205 212 216 218 229 242 249 252 251 250 251 246 236 229 220 211 210 209 218
195 186 179 183 188 190 188 184 185 186 181 183 191 194 201 206 205 211 218 210 201 204 206 208 219 233 244 255 262 263 263 262 259 260 251 233 229 225 212 212 200 211
171 166 172 183 181 182 186 185 187 190 187 188 194 198 204 210 213 218 224 222 213 208 209 215 232 250 254 255 256 253 259 273 283 300 314 350 31 12 337 301 226 198
149 155 167 179 177 179 184 185 191 199 198 197 201 205 210 216 222 228 235 238 235 227 218 216 227 237 231 225 220 210 215 318 15 17 16 28 34 23 3 332 306 235
137 145 156 167 176 186 194 193 193 198 199 199 204 211 218 223 226 233 238 238 236 234 214 184 187 196 199 197 194 190 193 250 44 68 52 44 15 289 220 242 269 258
136 143 149 152 160 172 179 180 183 190 197 205 215 223 226 226 227 230 236 244 239 221 188 164 173 184 192 199 208 215 216 224 195 147 175 242 264 263 254 254 242 224
133 142 144 139 139 142 144 151 161 169 175 186 202 210 211 212 211 203 183 136 128 162 172 171 179 194 208 213 218 221 217 214 202 156 154 251 275 280 273 272 265 243
126 131 133 133 133 133 133 135 137 138 137 143 151 149 148 157 163 164 158 145 145 165 188 184 171 178 184 184 194 199 178 163 181 177 171 211 272 283 261 258 265 255
122 125 129 135 139 140 139 135 131 132 131 132 135 137 139 145 147 150 156 154 150 156 171 168 155 152 161 163 165 171 160 151 171 197 185 167 130 239 263 266 266 239
123 126 129 134 140 144 146 144 141 141 142 141 144 149 153 157 159 159 159 155 152 154 171 191 179 170 184 179 164 171 174 163 171 196 185 156 132 142 280 277 259 241
129 137 142 145 150 153 154 154 154 153 154 156 160 165 167 169 170 169 164 163 173 186 197 216 234 228 221 221 193 187 185 165 168 195 185 163 169 196 255 275 248 237
137 147 150 156 167 173 171 174 176 175 171 170 172 179 183 183 186 188 182 181 200 224 220 227 253 259 252 247 224 200 194 180 176 201 204 202 216 211 229 266 266 266
Height
1533 1534 1535 1536 1537 1537 1537 1537 1537 1538 1538 1539 1539 1540 1541 1542 1542 1543 1544 1544 1544 1544 1544 1544 1544 1544 1544 1544 1545 1545 1544 1544 1544 1544 1544 1545 1545 1545 1545 1546 1546 1547
1532 1533 1533 1535 1536 1537 1537 1537 1537 1538 1538 1538 1539 1539 1540 1541 1543 1543 1544 1545 1545 1545 1545 1545 1545 1545 1545 1545 1545 1546 1546 1546 1546 1546 1546 1546 1547 1547 1547 1547 1547 1548
1531 1531 1532 1534 1535 1536 1537 1537 1537 1538 1538 1538 1538 1539 1540 1541 1543 1544 1545 1545 1546 1546 1546 1546 1546 1546 1546 1547 1547 1547 1547 1547 1547 1548 1548 1548 1548 1548 1548 1548 1549 1550
1530 1530 1530 1532 1534 1536 1537 1537 1537 1537 1537 1538 1538 1539 1540 1541 1543 1544 1545 1545 1546 1546 1547 1547 1547 1547 1548 1548 1548 1548 1548 1549 1549 1549 1549 1549 1550 1550 1550 1550 1550 1551
1529 1528 1529 1531 1533 1535 1536 1537 1537 1537 1537 1537 1538 1539 1540 1541 1543 1544 1545 1545 1546 1547 1547 1548 1548 1548 1549 1549 1549 1550 1550 1550 1550 1550 1551 1551 1551 1551 1551 1552 1552 1552
1528 1527 1528 1529 1531 1534 1536 1536 1537 1537 1537 1537 1538 1539 1540 1541 1543 1543 1545 1545 1546 1547 1548 1548 1549 1549 1550 1550 1550 1551 1551 1551 1551 1551 1552 1552 1552 1552 1553 1553 1553 1553
1526 1526 1527 1528 1530 1533 1535 1536 1536 1536 1536 1537 1537 1539 1540 1541 1542 1543 1544 1545 1546 1547 1548 1549 1549 1550 1550 1551 1551 1551 1552 1552 1552 1553 1553 1553 1553 1553 1554 1554 1555 1555
1523 1524 1525 1527 1529 1532 1533 1534 1535 1535 1536 1536 1536 1538 1539 1541 1543 1543 1544 1545 1546 1547 1548 1549 1549 1550 1551 1551 1552 1552 1552 1552 1553 1553 1554 1553 1553 1554 1554 1554 1555 1556
1521 1522 1523 1525 1527 1530 1532 1532 1533 1534 1535 1535 1536 1537 1539 1541 1542 1543 1544 1545 1546 1547 1548 1549 1550 1550 1550 1551 1552 1552 1552 1552 1553 1553 1553 1553 1553 1554 1555 1555 1555 1556
1519 1520 1521 1523 1525 1528 1530 1531 1532 1533 1534 1534 1535 1536 1538 1540 1542 1543 1544 1545 1546 1547 1548 1548 1549 1550 1550 1551 1552 1552 1552 1553 1553 1553 1553 1553 1553 1554 1555 1555 1555 1555
1516 1518 1520 1522 1524 1527 1529 1530 1530 1531 1532 1533 1534 1535 1537 1539 1541 1542 1544 1545 1545 1546 1547 1547 1548 1549 1550 1551 1551 1551 1552 1552 1552 1552 1552 1552 1553 1553 1554 1554 1554 1555
1514 1516 1518 1520 1523 1525 1526 1528 1529 1530 1531 1532 1533 1534 1536 1538 1540 1541 1543 1544 1545 1545 1546 1546 1547 1548 1549 1549 1550 1550 1551 1551 1550 1550 1550 1550 1550 1551 1552 1552 1553 1553
1513 1515 1517 1519 1521 1522 1524 1526 1527 1528 1529 1530 1532 1533 1535 1537 1539 1540 1541 1542 1543 1544 1544 1545 1545 1546 1547 1547 1548 1549 1549 1548 1548 1547 1546 1546 1547 1548 1549 1550 1551 1552
1514 1515 1516 1517 1519 1520 1521 1523 1525 1526 1527 1529 1531 1532 1535 1536 1538 1539 1539 1540 1541 1541 1542 1542 1542 1543 1544 1545 1546 1547 1546 1546 1545 1544 1544 1544 1544 1545 1546 1546 1548 1550
1514 1514 1515 1516 1517 1518 1519 1521 1523 1524 1526 1528 1530 1531 1533 1535 1536 1537 1536 1537 1538 1539 1539 1539 1539 1540 1542 1544 1544 1544 1544 1544 1543 1543 1544 1545 1544 1544 1544 1543 1545 1548
1512 1512 1512 1514 1515 1516 1518 1519 1521 1522 1524 1526 1528 1529 1531 1532 1533 1533 1534 1535 1535 1535 1535 1536 1537 1539 1541 1542 1542 1542 1542 1543 1543 1543 1544 1544 1543 1542 1542 1543 1544 1546
1511 1511 1511 1512 1514 1515 1517 1518 1519 1521 1523 1525 1527 1528 1529 1531 1532 1533 1534 1535 1534 1532 1532 1534 1537 1540 1540 1541 1541 1541 1541 1542 1543 1543 1543 1543 1542 1541 1542 1543 1544 1546
1510 1511 1511 1512 1514 1515 1516 1518 1519 1521 1524 1526 1527 1528 1529 1530 1531 1532 1533 1534 1534 1533 1533 1534 1537 1539 1539 1539 1540 1540 1541 1541 1542 1542 1542 1542 1542 1542 1543 1544 1545 1546
1511 1511 1512 1513 1515 1516 1518 1519 1521 1522 1524 1526 1527 1528 1528 1529 1530 1531 1531 1532 1533 1533 1534 1535 1537 1537 1538 1539 1540 1540 1541 1541 1541 1542 1542 1542 1542 1543 1544 1545 1546 1547
1513 1513 1513 1514 1515 1517 1519 1520 1521 1522 1523 1524 1525 1526 1527 1528 1530 1530 1531 1531 1533 1534 1535 1535 1536 1537 1537 1538 1539 1540 1541 1541 1542 1542 1543 1543 1543 1544 1545 1545 1546 1547
1515 1515 1515 1516 1517 1518 1519 1520 1521 1522 1522 1523 1524 1525 1526 1528 1529 1531 1531 1532 1533 1534 1535 1535 1535 1536 1537 1538 1539 1540 1540 1541 1542 1542 1543 1544 1544 1544 1545 1545 1545 1546
1516 1516 1517 1517 1518 1519 1519 1520 1521 1522 1522 1523 1524 1525 1526 1528 1529 1530 1531 1532 1533 1533 1534 1534 1535 1536 1537 1538 1539 1539 1540 1541 1542 1543 1544 1544 1544 1544 1544 1544 1545 1546
1517 1517 1518 1518 1518 1519 1520 1521 1522 1523 1523 1524 1525 1526 1527 1528 1529 1530 1531 1532 1533 1533 1533 1534 1535 1536 1537 1538 1538 1539 1540 1541 1542 1543 1543 1543 1544 1543 1543 1543 1544 1545
1518 1518 1519 1519 1520 1520 1521 1522 1523 1524 1525 1525 1526 1527 1528 1529 1530 1531 1531 1532 1532 1533 1533 1533 1534 1536 1536 1537 1538 1538 1539 1540 1542 1543 1543 1543 1544 1543 1542 1542 1543 1543
1518 1519 1519 1520 1521 1522 1522 1523 1523 1524 1525 1525 1527 1528 1528 1529 1530 1531 1532 1532 1531 1532 1532 1533 1534 1534 1535 1536 1537 1538 1539 1539 1541 1542 1542 1543 1543 1543 1542 1541 1542 1543
1519 1519 1519 1520 1521 1522 1523 1523 1523 1524 1525 1525 1526 1527 1528 1529 1530 1530 1531 1531 1531 1531 1531 1532 1532 1533 1534 1535 1536 1537 1538 1538 1540 1541 1541 1542 1543 1543 1542 1541 1541 1542